Location: Clermont
(50.2608°N, 4.3172°E)
Time: 08:56:56
(UTC+00:00)

SL-16 R/B - Pass Details

Date: 13 August 2020
Orbit: 840 x 849 km, 71.0° (Epoch: 20 September)

Event Time Altitude Azimuth Distance (km) Brightness Sun altitude
Rises 22:34:58 0° 332° (NNW) 3,425 6.8 -23.5°
Reaches altitude 10° 22:37:59 10° 347° (NNW) 2,487 5.7 -23.7°
Maximum altitude 22:42:27 23° 39° (NE) 1,737 4.1 -23.9°
Enters shadow 22:46:42 11° 90° (E) 2,418 4.4 -24.1°
